WIF4ZE ENBR-ENVA

Flight info

Callsign WIF4ZE
Flight time 1h 8m
Altitude 25000
Route INTUM DCT NELSU
Aircraft DH8D/M-SDE2E3FGRY/H

Departure

Time 2026-05-05 19:15
Airport Bergen Airport, Flesland (ENBR)

Arrival

Time 2026-05-05 20:24
Airport Trondheim Airport, Værnes (ENVA)
Time Latitude Longitude Altitude Speed Heading
2026-05-05 18:47 60.29080 5.22875 182 ft 0 kts 45°
2026-05-05 19:08 60.29084 5.22881 182 ft 3 kts 26°
2026-05-05 19:09 60.29069 5.22813 180 ft 12 kts 221°
2026-05-05 19:09 60.29046 5.22654 178 ft 11 kts 264°
2026-05-05 19:09 60.29038 5.22558 176 ft 0 kts 261°
2026-05-05 19:10 60.29030 5.22462 174 ft 12 kts 260°
2026-05-05 19:10 60.29069 5.22338 171 ft 9 kts 313°
2026-05-05 19:10 60.29028 5.22241 169 ft 16 kts 172°
2026-05-05 19:11 60.28899 5.22284 170 ft 15 kts 171°
2026-05-05 19:11 60.28778 5.22325 170 ft 14 kts 171°
2026-05-05 19:11 60.28674 5.22341 168 ft 9 kts 244°
2026-05-05 19:11 60.28667 5.22239 166 ft 0 kts 262°
2026-05-05 19:13 60.28666 5.22219 166 ft 8 kts 262°
2026-05-05 19:13 60.28656 5.22059 162 ft 12 kts 281°
2026-05-05 19:13 60.28673 5.22033 162 ft 0 kts 350°
2026-05-05 19:14 60.28677 5.22031 162 ft 6 kts 350°
2026-05-05 19:14 60.29012 5.21921 165 ft 98 kts 349°
2026-05-05 19:15 60.29918 5.21633 371 ft 147 kts 350°
2026-05-05 19:15 60.30950 5.21414 940 ft 167 kts 350°
2026-05-05 19:15 60.32228 5.20948 1286 ft 202 kts 348°
2026-05-05 19:15 60.33655 5.20419 1799 ft 222 kts 348°
2026-05-05 19:16 60.35223 5.19807 2228 ft 235 kts 348°
2026-05-05 19:16 60.36827 5.19167 2694 ft 238 kts 348°
2026-05-05 19:16 60.38459 5.18513 2936 ft 236 kts 348°
2026-05-05 19:16 60.39975 5.17885 2893 ft 213 kts 348°
2026-05-05 19:17 60.41429 5.17298 2816 ft 211 kts 348°
2026-05-05 19:17 60.42853 5.16807 2764 ft 207 kts 351°
2026-05-05 19:17 60.44246 5.16449 2916 ft 195 kts 351°
2026-05-05 19:17 60.45585 5.16092 3043 ft 196 kts 351°
2026-05-05 19:18 60.46951 5.15706 3177 ft 197 kts 351°
2026-05-05 19:18 60.48301 5.15307 3318 ft 197 kts 351°
2026-05-05 19:18 60.49648 5.15589 3412 ft 201 kts 23°
2026-05-05 19:18 60.50816 5.17134 3537 ft 202 kts 33°
2026-05-05 19:19 60.51960 5.18818 3675 ft 202 kts 33°
2026-05-05 19:19 60.53096 5.20489 3819 ft 202 kts 33°
2026-05-05 19:19 60.54232 5.22156 4040 ft 204 kts 33°
2026-05-05 19:19 60.55391 5.23857 4381 ft 206 kts 33°
2026-05-05 19:20 60.56558 5.25562 4734 ft 208 kts 33°
2026-05-05 19:20 60.57740 5.27284 5089 ft 210 kts 33°
2026-05-05 19:20 60.58927 5.29010 5446 ft 211 kts 33°
2026-05-05 19:20 60.60115 5.30738 5874 ft 210 kts 32°
2026-05-05 19:21 60.61298 5.32464 6522 ft 213 kts 32°
2026-05-05 19:21 60.62500 5.34219 7202 ft 219 kts 32°
2026-05-05 19:21 60.63749 5.36038 7925 ft 224 kts 32°
2026-05-05 19:21 60.65017 5.37884 8673 ft 227 kts 32°
2026-05-05 19:22 60.66303 5.39757 9434 ft 229 kts 32°
2026-05-05 19:22 60.67586 5.41626 10191 ft 231 kts 31°
2026-05-05 19:22 60.68894 5.43532 10956 ft 233 kts 31°
2026-05-05 19:22 60.70204 5.45443 11717 ft 235 kts 31°
2026-05-05 19:23 60.71529 5.47376 12482 ft 237 kts 30°
2026-05-05 19:23 60.72858 5.49317 13242 ft 239 kts 30°
2026-05-05 19:23 60.74213 5.51300 14005 ft 240 kts 29°
2026-05-05 19:23 60.75560 5.53270 14752 ft 242 kts 29°
2026-05-05 19:24 60.76927 5.55273 15497 ft 244 kts 29°
2026-05-05 19:24 60.78301 5.57289 16246 ft 246 kts 28°
2026-05-05 19:24 60.79697 5.59338 16991 ft 248 kts 28°
2026-05-05 19:24 60.81086 5.61379 17708 ft 251 kts 27°
2026-05-05 19:25 60.82505 5.63468 18449 ft 253 kts 28°
2026-05-05 19:25 60.83922 5.65555 19174 ft 255 kts 28°
2026-05-05 19:25 60.85355 5.67668 19832 ft 258 kts 27°
2026-05-05 19:25 60.86819 5.69828 20485 ft 261 kts 27°
2026-05-05 19:26 60.88294 5.72007 21115 ft 265 kts 26°
2026-05-05 19:26 60.89789 5.74217 21752 ft 269 kts 26°
2026-05-05 19:26 60.91309 5.76468 22384 ft 274 kts 26°
2026-05-05 19:26 60.92870 5.78783 23027 ft 278 kts 25°
2026-05-05 19:27 60.94435 5.81105 23656 ft 282 kts 25°
2026-05-05 19:27 60.96014 5.83453 24267 ft 286 kts 24°
2026-05-05 19:27 60.97652 5.85890 24711 ft 300 kts 25°
2026-05-05 19:27 60.99378 5.88592 24825 ft 326 kts 27°
2026-05-05 19:28 61.01205 5.91535 24870 ft 342 kts 28°
2026-05-05 19:28 61.03091 5.94598 24886 ft 348 kts 29°
2026-05-05 19:28 61.05000 5.97707 24844 ft 354 kts 29°
2026-05-05 19:28 61.06945 6.00881 24860 ft 357 kts 29°
2026-05-05 19:29 61.08888 6.04052 24854 ft 361 kts 29°
2026-05-05 19:29 61.10876 6.07300 24871 ft 363 kts 29°
2026-05-05 19:29 61.12850 6.10527 24876 ft 365 kts 30°
2026-05-05 19:29 61.14827 6.13764 24881 ft 367 kts 30°
2026-05-05 19:30 61.16832 6.17049 24885 ft 369 kts 30°
2026-05-05 19:30 61.18849 6.20359 24881 ft 369 kts 30°
2026-05-05 19:30 61.20856 6.23657 24875 ft 370 kts 30°
2026-05-05 19:30 61.22854 6.26944 24874 ft 370 kts 30°
2026-05-05 19:31 61.24848 6.30232 24907 ft 370 kts 30°
2026-05-05 19:31 61.26890 6.33602 24902 ft 372 kts 30°
2026-05-05 19:31 61.28896 6.36917 24891 ft 372 kts 30°
2026-05-05 19:31 61.30913 6.40259 24881 ft 372 kts 30°
2026-05-05 19:32 61.32922 6.43591 24877 ft 372 kts 30°
2026-05-05 19:32 61.34930 6.46926 24872 ft 372 kts 30°
2026-05-05 19:32 61.36959 6.50301 24851 ft 372 kts 30°
2026-05-05 19:32 61.38983 6.53673 24826 ft 372 kts 31°
2026-05-05 19:33 61.40978 6.57004 24794 ft 372 kts 30°
2026-05-05 19:33 61.42984 6.60360 24833 ft 370 kts 31°
2026-05-05 19:33 61.44997 6.63732 24844 ft 370 kts 31°
2026-05-05 19:33 61.47002 6.67095 24832 ft 370 kts 32°
2026-05-05 19:34 61.49003 6.70458 24835 ft 369 kts 32°
2026-05-05 19:34 61.50975 6.73780 24857 ft 367 kts 32°
2026-05-05 19:34 61.52977 6.77155 24875 ft 367 kts 32°
2026-05-05 19:35 61.56907 6.83798 24876 ft 365 kts 31°
2026-05-05 19:35 61.58880 6.87142 24923 ft 365 kts 32°
2026-05-05 19:35 61.60862 6.90506 24882 ft 365 kts 32°
2026-05-05 19:35 61.62823 6.93840 24894 ft 365 kts 32°
2026-05-05 19:36 61.64795 6.97198 24884 ft 365 kts 32°
2026-05-05 19:36 61.66754 7.00539 24867 ft 365 kts 32°
2026-05-05 19:36 61.68733 7.03921 24863 ft 365 kts 32°
2026-05-05 19:36 61.70692 7.07274 24854 ft 365 kts 32°
2026-05-05 19:37 61.72638 7.10610 24799 ft 365 kts 32°
2026-05-05 19:37 61.74618 7.14014 24802 ft 364 kts 33°
2026-05-05 19:37 61.76552 7.17340 24766 ft 364 kts 33°
2026-05-05 19:37 61.78513 7.20720 24746 ft 364 kts 33°
2026-05-05 19:38 61.80461 7.24086 24735 ft 363 kts 33°
2026-05-05 19:38 61.82396 7.27431 24729 ft 361 kts 33°
2026-05-05 19:38 61.84330 7.30783 24735 ft 360 kts 32°
2026-05-05 19:38 61.86251 7.34117 24756 ft 360 kts 33°
2026-05-05 19:39 61.88202 7.37507 24753 ft 359 kts 33°
2026-05-05 19:39 61.90116 7.40840 24757 ft 358 kts 33°
2026-05-05 19:39 61.92036 7.44187 24745 ft 358 kts 33°
2026-05-05 19:39 61.93950 7.47530 24785 ft 357 kts 33°
2026-05-05 19:40 61.95857 7.50867 24786 ft 358 kts 33°
2026-05-05 19:40 61.97774 7.54228 24774 ft 357 kts 33°
2026-05-05 19:40 61.99693 7.57596 24773 ft 356 kts 33°
2026-05-05 19:40 62.01576 7.60908 24775 ft 356 kts 33°
2026-05-05 19:41 62.03473 7.64251 24793 ft 356 kts 33°
2026-05-05 19:41 62.05383 7.67621 24803 ft 356 kts 34°
2026-05-05 19:41 62.07274 7.70962 24783 ft 355 kts 34°
2026-05-05 19:41 62.09181 7.74339 24780 ft 355 kts 34°
2026-05-05 19:42 62.11067 7.77684 24784 ft 354 kts 34°
2026-05-05 19:42 62.12965 7.81055 24783 ft 354 kts 34°
2026-05-05 19:42 62.14840 7.84391 24765 ft 354 kts 34°
2026-05-05 19:42 62.16716 7.87735 24770 ft 354 kts 34°
2026-05-05 19:43 62.18619 7.91132 24769 ft 354 kts 35°
2026-05-05 19:43 62.20487 7.94473 24757 ft 354 kts 35°
2026-05-05 19:43 62.22378 7.97861 24757 ft 353 kts 35°
2026-05-05 19:43 62.24265 8.01248 24773 ft 352 kts 35°
2026-05-05 19:44 62.26131 8.04602 24788 ft 352 kts 35°
2026-05-05 19:44 62.27986 8.07942 24790 ft 352 kts 35°
2026-05-05 19:44 62.29855 8.11312 24787 ft 352 kts 35°
2026-05-05 19:44 62.31724 8.14689 24794 ft 352 kts 35°
2026-05-05 19:45 62.33590 8.18065 24797 ft 352 kts 35°
2026-05-05 19:45 62.35468 8.21469 24799 ft 352 kts 35°
2026-05-05 19:45 62.37314 8.24821 24813 ft 351 kts 35°
2026-05-05 19:45 62.39172 8.28198 24808 ft 352 kts 35°
2026-05-05 19:46 62.41043 8.31606 24792 ft 352 kts 35°
2026-05-05 19:46 62.42919 8.35030 24798 ft 352 kts 35°
2026-05-05 19:46 62.44784 8.38439 24794 ft 352 kts 35°
2026-05-05 19:46 62.46644 8.41845 24799 ft 352 kts 35°
2026-05-05 19:47 62.48484 8.45220 24806 ft 352 kts 35°
2026-05-05 19:47 62.50354 8.48656 24814 ft 352 kts 35°
2026-05-05 19:47 62.52218 8.52086 24821 ft 351 kts 35°
2026-05-05 19:47 62.54068 8.55496 24808 ft 352 kts 36°
2026-05-05 19:48 62.55930 8.58934 24809 ft 352 kts 36°
2026-05-05 19:48 62.57787 8.62371 24788 ft 352 kts 36°
2026-05-05 19:48 62.59644 8.65811 24774 ft 352 kts 37°
2026-05-05 19:48 62.61491 8.69239 24762 ft 352 kts 37°
2026-05-05 19:49 62.63367 8.72725 24744 ft 352 kts 37°
2026-05-05 19:49 62.65210 8.76159 24738 ft 352 kts 37°
2026-05-05 19:49 62.67066 8.79623 24733 ft 352 kts 37°
2026-05-05 19:49 62.68899 8.83049 24716 ft 352 kts 37°
2026-05-05 19:50 62.70759 8.86529 24464 ft 354 kts 37°
2026-05-05 19:50 62.72606 8.89987 23919 ft 346 kts 37°
2026-05-05 19:50 62.74414 8.93373 23356 ft 336 kts 37°
2026-05-05 19:50 62.76161 8.96652 22811 ft 327 kts 36°
2026-05-05 19:51 62.77831 8.99794 22296 ft 318 kts 36°
2026-05-05 19:51 62.79491 9.02922 21769 ft 310 kts 37°
2026-05-05 19:51 62.81101 9.05959 21261 ft 303 kts 37°
2026-05-05 19:51 62.82673 9.08934 20739 ft 297 kts 37°
2026-05-05 19:52 62.84212 9.11859 20215 ft 292 kts 37°
2026-05-05 19:52 62.85712 9.14706 19784 ft 283 kts 36°
2026-05-05 19:52 62.87176 9.17482 19326 ft 277 kts 36°
2026-05-05 19:52 62.88596 9.20178 18881 ft 271 kts 36°
2026-05-05 19:53 62.90004 9.22858 18432 ft 264 kts 36°
2026-05-05 19:53 62.91369 9.25457 18005 ft 258 kts 36°
2026-05-05 19:53 62.92709 9.28015 17575 ft 252 kts 36°
2026-05-05 19:53 62.94027 9.30534 17165 ft 255 kts 36°
2026-05-05 19:54 62.95388 9.33142 16746 ft 264 kts 37°
2026-05-05 19:54 62.96766 9.35785 16306 ft 272 kts 37°
2026-05-05 19:54 62.98212 9.38560 15841 ft 280 kts 37°
2026-05-05 19:54 62.99670 9.41365 15373 ft 286 kts 37°
2026-05-05 19:55 63.01176 9.44268 14896 ft 291 kts 37°
2026-05-05 19:55 63.02690 9.47190 14395 ft 287 kts 37°
2026-05-05 19:55 63.04183 9.50074 13914 ft 284 kts 37°
2026-05-05 19:55 63.05647 9.52908 13451 ft 280 kts 37°
2026-05-05 19:56 63.07100 9.55722 12997 ft 277 kts 37°
2026-05-05 19:56 63.08528 9.58495 12542 ft 274 kts 37°
2026-05-05 19:56 63.09935 9.61255 12091 ft 271 kts 39°
2026-05-05 19:56 63.10944 9.64685 11838 ft 266 kts 70°
2026-05-05 19:57 63.11300 9.68559 11705 ft 253 kts 79°
2026-05-05 19:57 63.11574 9.72242 11590 ft 239 kts 79°
2026-05-05 19:57 63.11830 9.75765 11486 ft 223 kts 79°
2026-05-05 19:57 63.12069 9.79074 11415 ft 220 kts 79°
2026-05-05 19:58 63.12309 9.82509 11336 ft 232 kts 79°
2026-05-05 19:58 63.12566 9.86116 11241 ft 245 kts 79°
2026-05-05 19:58 63.12836 9.89904 11127 ft 257 kts 79°
2026-05-05 19:58 63.13118 9.93860 11003 ft 268 kts 79°
2026-05-05 19:59 63.13411 9.97986 10870 ft 277 kts 79°
2026-05-05 19:59 63.13713 10.02249 10743 ft 284 kts 79°
2026-05-05 19:59 63.14018 10.06570 10622 ft 289 kts 79°
2026-05-05 19:59 63.14326 10.10952 10501 ft 293 kts 79°
2026-05-05 20:00 63.14637 10.15401 10374 ft 288 kts 79°
2026-05-05 20:00 63.14938 10.19698 10256 ft 281 kts 79°
2026-05-05 20:00 63.15232 10.23911 10145 ft 274 kts 79°
2026-05-05 20:00 63.15517 10.28017 10033 ft 269 kts 79°
2026-05-05 20:01 63.15796 10.32060 9921 ft 265 kts 79°
2026-05-05 20:01 63.16071 10.36064 9809 ft 261 kts 79°
2026-05-05 20:01 63.16337 10.39959 9700 ft 258 kts 79°
2026-05-05 20:01 63.16602 10.43848 9589 ft 255 kts 78°
2026-05-05 20:02 63.16863 10.47704 9482 ft 252 kts 78°
2026-05-05 20:02 63.17120 10.51516 9366 ft 250 kts 78°
2026-05-05 20:02 63.17374 10.55283 9254 ft 248 kts 78°
2026-05-05 20:02 63.17625 10.59036 9152 ft 245 kts 78°
2026-05-05 20:03 63.17873 10.62763 9043 ft 243 kts 78°
2026-05-05 20:03 63.18116 10.66423 8935 ft 241 kts 79°
2026-05-05 20:03 63.18357 10.70075 8830 ft 239 kts 79°
2026-05-05 20:03 63.18594 10.73691 8724 ft 237 kts 79°
2026-05-05 20:04 63.18830 10.77285 8617 ft 235 kts 79°
2026-05-05 20:04 63.19062 10.80843 8517 ft 233 kts 79°
2026-05-05 20:04 63.19291 10.84379 8423 ft 231 kts 79°
2026-05-05 20:04 63.19516 10.87846 8331 ft 228 kts 79°
2026-05-05 20:05 63.19738 10.91297 8234 ft 226 kts 79°
2026-05-05 20:05 63.19960 10.94758 8138 ft 224 kts 79°
2026-05-05 20:05 63.20178 10.98160 8043 ft 222 kts 79°
2026-05-05 20:05 63.20391 11.01507 7955 ft 222 kts 79°
2026-05-05 20:06 63.20609 11.04946 7865 ft 227 kts 79°
2026-05-05 20:06 63.20827 11.08416 7762 ft 233 kts 79°
2026-05-05 20:06 63.21053 11.11998 7658 ft 238 kts 79°
2026-05-05 20:06 63.21284 11.15684 7550 ft 244 kts 79°
2026-05-05 20:07 63.21520 11.19458 7435 ft 248 kts 79°
2026-05-05 20:07 63.21754 11.23228 7321 ft 252 kts 79°
2026-05-05 20:07 63.21995 11.27143 7201 ft 255 kts 79°
2026-05-05 20:07 63.22233 11.31004 7082 ft 258 kts 79°
2026-05-05 20:08 63.22475 11.34963 6968 ft 260 kts 79°
2026-05-05 20:08 63.22718 11.38957 6849 ft 260 kts 79°
2026-05-05 20:08 63.22732 11.42929 6780 ft 260 kts 95°
2026-05-05 20:08 63.22465 11.46868 6727 ft 257 kts 97°
2026-05-05 20:09 63.22184 11.50746 6678 ft 255 kts 97°
2026-05-05 20:09 63.21905 11.54621 6637 ft 253 kts 96°
2026-05-05 20:09 63.21963 11.58438 6602 ft 246 kts 73°
2026-05-05 20:09 63.22410 11.62034 6569 ft 243 kts 70°
2026-05-05 20:10 63.22883 11.65630 6531 ft 242 kts 70°
2026-05-05 20:10 63.23357 11.69239 6492 ft 241 kts 70°
2026-05-05 20:10 63.23983 11.72613 6448 ft 234 kts 52°
2026-05-05 20:10 63.25001 11.75378 6427 ft 230 kts 44°
2026-05-05 20:11 63.26046 11.78007 6393 ft 230 kts 44°
2026-05-05 20:11 63.27108 11.80681 6360 ft 229 kts 44°
2026-05-05 20:11 63.28168 11.83303 6180 ft 234 kts 40°
2026-05-05 20:11 63.29515 11.85239 5815 ft 226 kts 20°
2026-05-05 20:12 63.30931 11.86618 5488 ft 225 kts 19°
2026-05-05 20:12 63.32357 11.87969 5307 ft 216 kts 15°
2026-05-05 20:12 63.33728 11.88159 5210 ft 191 kts 335°
2026-05-05 20:12 63.34608 11.86289 5179 ft 166 kts 295°
2026-05-05 20:13 63.35029 11.83999 5164 ft 161 kts 291°
2026-05-05 20:13 63.35406 11.81653 5137 ft 157 kts 289°
2026-05-05 20:13 63.35730 11.79371 5118 ft 156 kts 287°
2026-05-05 20:13 63.36033 11.77031 5103 ft 159 kts 286°
2026-05-05 20:14 63.36324 11.74596 5090 ft 164 kts 285°
2026-05-05 20:14 63.36602 11.72104 5066 ft 169 kts 284°
2026-05-05 20:14 63.36872 11.69539 5040 ft 175 kts 284°
2026-05-05 20:14 63.37145 11.66818 5014 ft 181 kts 283°
2026-05-05 20:15 63.37415 11.64047 4983 ft 186 kts 283°
2026-05-05 20:15 63.37686 11.61200 4960 ft 191 kts 283°
2026-05-05 20:15 63.37953 11.58314 4919 ft 189 kts 282°
2026-05-05 20:15 63.38271 11.55502 4817 ft 187 kts 295°
2026-05-05 20:16 63.39208 11.53546 4702 ft 189 kts 333°
2026-05-05 20:16 63.40434 11.52520 4544 ft 187 kts 337°
2026-05-05 20:16 63.41639 11.51590 4390 ft 183 kts 338°
2026-05-05 20:16 63.42832 11.50679 4235 ft 182 kts 338°
2026-05-05 20:17 63.44032 11.49758 4081 ft 180 kts 337°
2026-05-05 20:17 63.45088 11.48513 3960 ft 169 kts 309°
2026-05-05 20:17 63.45430 11.46158 3848 ft 160 kts 271°
2026-05-05 20:17 63.45437 11.43641 3786 ft 164 kts 276°
2026-05-05 20:18 63.45526 11.41160 3802 ft 154 kts 275°
2026-05-05 20:18 63.45560 11.38843 3903 ft 146 kts 274°
2026-05-05 20:18 63.45589 11.36573 3978 ft 145 kts 274°
2026-05-05 20:18 63.45612 11.34336 4046 ft 145 kts 273°
2026-05-05 20:19 63.45629 11.32010 3984 ft 155 kts 272°
2026-05-05 20:19 63.45646 11.29522 3805 ft 168 kts 272°
2026-05-05 20:19 63.45655 11.26900 3503 ft 167 kts 271°
2026-05-05 20:19 63.45656 11.24354 3160 ft 161 kts 271°
2026-05-05 20:20 63.45664 11.21917 2882 ft 155 kts 272°
2026-05-05 20:20 63.45678 11.19502 2665 ft 158 kts 272°
2026-05-05 20:20 63.45691 11.17023 2406 ft 161 kts 272°
2026-05-05 20:20 63.45697 11.14579 2169 ft 150 kts 271°
2026-05-05 20:21 63.45697 11.12327 1912 ft 140 kts 271°
2026-05-05 20:21 63.45702 11.10271 1652 ft 125 kts 272°
2026-05-05 20:21 63.45713 11.08369 1476 ft 121 kts 273°
2026-05-05 20:21 63.45726 11.06522 1302 ft 118 kts 272°
2026-05-05 20:22 63.45731 11.04710 1126 ft 115 kts 273°
2026-05-05 20:22 63.45740 11.02903 969 ft 116 kts 273°
2026-05-05 20:22 63.45730 11.01101 816 ft 117 kts 271°
2026-05-05 20:22 63.45717 10.99269 636 ft 120 kts 272°
2026-05-05 20:23 63.45725 10.97376 433 ft 121 kts 272°
2026-05-05 20:23 63.45740 10.95511 224 ft 121 kts 273°
2026-05-05 20:23 63.45752 10.93679 47 ft 112 kts 271°
2026-05-05 20:23 63.45758 10.92285 7 ft 65 kts 270°
2026-05-05 20:24 63.45761 10.91670 3 ft 15 kts 270°
2026-05-05 20:24 63.45750 10.91545 1 ft 8 kts 234°
2026-05-05 20:24 63.45692 10.91517 0 ft 8 kts 179°
2026-05-05 20:24 63.45662 10.91517 0 ft 0 kts 180°
2026-05-05 20:25 63.45661 10.91517 0 ft 0 kts 180°
2026-05-05 20:25 63.45607 10.91528 0 ft 8 kts 148°
2026-05-05 20:26 63.45597 10.91682 2 ft 13 kts 90°
2026-05-05 20:26 63.45596 10.91956 3 ft 18 kts 90°
2026-05-05 20:26 63.45574 10.92075 3 ft 4 kts 190°
2026-05-05 20:26 63.45534 10.92081 3 ft 0 kts 179°